Glidden, IA

2:03 AM CST on February 27, 2017 (GMT -0600)
Neu

Weather History for KCIN - June, 2013

Change the Weather History Date:

Saturday, June 15, 2013

  Actual Average Record
Temperature  
Mean Temperature 71 °F -  
Max Temperature 78 °F 81 °F 96 °F (1987)
Min Temperature 64 °F 57 °F 40 °F (1969)
Cooling Degree Days 6    
Growing Degree Days 21 (Base 50)    
Moisture  
Dew Point 66 °F    
Average Humidity 85    
Maximum Humidity 94    
Minimum Humidity 69    
Precipitation  
Precipitation 0.00 in - - ()
Sea Level Pressure  
Sea Level Pressure 29.90 in    
Wind  
Wind Speed 12 mph (South)    
Max Wind Speed 26 mph    
Max Gust Speed 31 mph    
Visibility 10 miles    
Events Rain    
Averages and records for this station are not official NWS values.
T = Trace of Precipitation, MM = Missing Value Source: NWS Daily Summary

Daily Weather History Graph

Daily Weather History Graph

Search for Another Location

Airport or City:

Trip Planner

Search our weather history database for the weather conditions in past years. The results will help you decide how hot, cold, wet, or windy it might be!

Date:

Astronomy

Jun. 15, 2013 Rise Set
Actual Time 5:42 AM CDT 8:56 PM CDT
Civil Twilight 5:08 AM CDT 9:31 PM CDT
Nautical Twilight 4:23 AM CDT 10:15 PM CDT
Astronomical Twilight 3:30 AM CDT 11:09 PM CDT
Moon 12:24 PM CDT (6/15) 12:27 AM CDT (6/15)
Length of Visible Light 16h 22m
Length of Day
15h 13m
Waxing Crescent, 40% of the Moon is Illuminated
Jun 15
Waxing Crescent
Jun 16
First Quarter
Jun 23
Full
Jun 29
Last Quarter
Jul 8
New

Hourly Weather History & Observations

Time (CDT) Temp. Dew Point Humidity Pressure Visibility Wind Dir Wind Speed Gust Speed Precip Events Conditions
12:15 AM 68.0 °F 60.8 °F 78% 29.89 in 8.0 mi South 17.3 mph 25.3 mph N/A   Mostly Cloudy
12:35 AM 68.0 °F 62.6 °F 83% 29.87 in 6.0 mi SE 21.9 mph - N/A   Haze
12:55 AM 69.8 °F 60.8 °F 73% 29.87 in 10.0 mi SSE 26.5 mph - N/A   Mostly Cloudy
1:15 AM 71.6 °F 60.8 °F 69% 29.89 in 10.0 mi SSE 18.4 mph 28.8 mph N/A   Scattered Clouds
1:35 AM 69.8 °F 60.8 °F 73% 29.85 in 10.0 mi ESE 23.0 mph 29.9 mph N/A   Scattered Clouds
1:55 AM 69.8 °F 60.8 °F 73% 29.87 in 10.0 mi South 19.6 mph - N/A   Partly Cloudy
2:15 AM 69.8 °F 60.8 °F 73% 29.89 in 10.0 mi South 13.8 mph 19.6 mph N/A   Clear
2:35 AM 68.0 °F 62.6 °F 83% 29.90 in 10.0 mi South 12.7 mph 18.4 mph N/A   Clear
2:55 AM 68.0 °F 62.6 °F 83% 29.90 in 10.0 mi SSW 13.8 mph 19.6 mph N/A   Clear
3:15 AM 68.0 °F 62.6 °F 83% 29.89 in 10.0 mi South 12.7 mph - N/A   Clear
3:35 AM 68.0 °F 62.6 °F 83% 29.89 in 10.0 mi South 11.5 mph - N/A   Clear
3:55 AM 68.0 °F 62.6 °F 83% 29.88 in 10.0 mi South 9.2 mph 16.1 mph N/A   Clear
4:15 AM 68.0 °F 62.6 °F 83% 29.88 in 10.0 mi South 6.9 mph 12.7 mph N/A   Clear
4:35 AM 68.0 °F 62.6 °F 83% 29.88 in 10.0 mi ESE 4.6 mph - N/A   Clear
4:55 AM 66.2 °F 60.8 °F 83% 29.88 in 10.0 mi ESE 4.6 mph - N/A   Clear
5:15 AM 66.2 °F 60.8 °F 83% 29.88 in 10.0 mi South 6.9 mph - N/A   Clear
5:35 AM 66.2 °F 60.8 °F 83% 29.88 in 10.0 mi SSE 3.5 mph - N/A   Partly Cloudy
5:55 AM 66.2 °F 60.8 °F 83% 29.88 in 10.0 mi SE 5.8 mph - N/A   Clear
6:15 AM 64.4 °F 62.6 °F 94% 29.88 in 10.0 mi East 8.1 mph - N/A   Clear
6:35 AM 64.4 °F 62.6 °F 94% 29.88 in 10.0 mi East 4.6 mph - N/A   Clear
6:55 AM 66.2 °F 62.6 °F 88% 29.89 in 10.0 mi Calm Calm - N/A   Clear
7:15 AM 66.2 °F 64.4 °F 94% 29.90 in 10.0 mi SE 5.8 mph - N/A   Clear
7:35 AM 66.2 °F 64.4 °F 94% 29.89 in 10.0 mi SE 10.4 mph - N/A   Clear
7:55 AM 66.2 °F 64.4 °F 94% 29.89 in 10.0 mi SSE 8.1 mph - N/A   Clear
8:15 AM 68.0 °F 64.4 °F 88% 29.88 in 10.0 mi SE 9.2 mph - N/A   Clear
8:35 AM 69.8 °F 64.4 °F 83% 29.89 in 10.0 mi SSE 9.2 mph - N/A   Clear
8:55 AM 69.8 °F 66.2 °F 88% 29.89 in 10.0 mi SSE 10.4 mph - N/A   Clear
9:15 AM 73.4 °F 68.0 °F 83% 29.91 in 10.0 mi South 12.7 mph 23.0 mph N/A   Clear
9:35 AM 73.4 °F 68.0 °F 83% 29.91 in 10.0 mi SSW 12.7 mph 20.7 mph N/A   Clear
9:55 AM 71.6 °F 68.0 °F 88% 29.92 in 10.0 mi SSW 13.8 mph 20.7 mph N/A   Scattered Clouds
10:15 AM 69.8 °F 68.0 °F 94% 29.92 in 3.0 mi SSW 23.0 mph 31.1 mph N/A Rain Light Rain
10:35 AM 71.6 °F 66.2 °F 83% 29.90 in 5.0 mi South 20.7 mph 29.9 mph N/A   Light Drizzle
10:55 AM 71.6 °F 68.0 °F 88% 29.92 in 9.0 mi West 4.6 mph 12.7 mph N/A   Light Drizzle
11:15 AM 71.6 °F 68.0 °F 88% 29.95 in 10.0 mi West 12.7 mph - N/A   Scattered Clouds
11:35 AM 73.4 °F 69.8 °F 88% 29.93 in 10.0 mi NW 16.1 mph - N/A   Scattered Clouds
11:55 AM 71.6 °F 68.0 °F 88% 29.92 in 10.0 mi NNW 16.1 mph 24.2 mph N/A   Scattered Clouds
12:15 PM 71.6 °F 68.0 °F 88% 29.95 in 10.0 mi North 10.4 mph - N/A   Partly Cloudy
12:35 PM 68.0 °F 66.2 °F 94% 29.94 in 3.0 mi NNE 11.5 mph 20.7 mph N/A   Mostly Cloudy
12:55 PM 68.0 °F 66.2 °F 94% 29.92 in 10.0 mi NNE 8.1 mph 15.0 mph N/A   Partly Cloudy
1:15 PM 69.8 °F 64.4 °F 83% 29.91 in 10.0 mi East 9.2 mph - N/A   Clear
1:35 PM 69.8 °F 64.4 °F 83% 29.89 in 10.0 mi SE 16.1 mph - N/A   Clear
1:55 PM 69.8 °F 66.2 °F 88% 29.93 in 10.0 mi South 9.2 mph 15.0 mph N/A   Light Drizzle
2:15 PM 69.8 °F 68.0 °F 94% 29.89 in 10.0 mi SSE 26.5 mph - N/A   Partly Cloudy
2:35 PM 71.6 °F 69.8 °F 94% 29.90 in 9.0 mi South 19.6 mph 31.1 mph N/A   Light Drizzle
2:55 PM 71.6 °F 69.8 °F 94% 29.92 in 10.0 mi North - - N/A   Scattered Clouds
3:15 PM 73.4 °F 69.8 °F 88% 29.92 in 10.0 mi SW 5.8 mph - N/A   Partly Cloudy
3:35 PM 77.0 °F 71.6 °F 83% 29.91 in 10.0 mi West 6.9 mph - N/A   Clear
3:55 PM 77.0 °F 71.6 °F 83% 29.90 in 10.0 mi West 6.9 mph - N/A   Clear
4:15 PM 77.0 °F 71.6 °F 83% 29.90 in 10.0 mi West 9.2 mph - N/A   Scattered Clouds
4:35 PM 77.0 °F 71.6 °F 83% 29.89 in 10.0 mi West 10.4 mph - N/A   Scattered Clouds
4:55 PM 77.0 °F 71.6 °F 83% 29.89 in 10.0 mi West 9.2 mph - N/A   Clear
5:15 PM 78.8 °F 71.6 °F 78% 29.89 in 10.0 mi NW 10.4 mph - N/A   Clear
5:35 PM 78.8 °F 69.8 °F 74% 29.89 in 10.0 mi West 8.1 mph - N/A   Clear
5:55 PM 77.0 °F 69.8 °F 78% 29.89 in 10.0 mi WNW 10.4 mph - N/A   Clear
6:15 PM 78.8 °F 69.8 °F 74% 29.88 in 10.0 mi NW 10.4 mph - N/A   Clear
6:35 PM 77.0 °F 69.8 °F 78% 29.87 in 10.0 mi NW 8.1 mph - N/A   Clear
6:55 PM 77.0 °F 69.8 °F 78% 29.88 in 10.0 mi NW 8.1 mph - N/A   Clear
7:15 PM 77.0 °F 69.8 °F 78% 29.89 in 10.0 mi NW 8.1 mph - N/A   Clear
7:35 PM 77.0 °F 69.8 °F 78% 29.89 in 10.0 mi NNW 5.8 mph - N/A   Clear
7:55 PM 77.0 °F 69.8 °F 78% 29.90 in 10.0 mi NNW 8.1 mph - N/A   Clear
8:15 PM 75.2 °F 69.8 °F 83% 29.90 in 10.0 mi NNW 6.9 mph - N/A   Clear
8:35 PM 75.2 °F 69.8 °F 83% 29.91 in 10.0 mi North 5.8 mph - N/A   Clear
8:55 PM 73.4 °F 68.0 °F 83% 29.91 in 10.0 mi North 3.5 mph - N/A   Clear
9:15 PM 71.6 °F 69.8 °F 94% 29.92 in 10.0 mi SE 3.5 mph - N/A   Clear
9:35 PM 71.6 °F 69.8 °F 94% 29.92 in 10.0 mi SSE 4.6 mph - N/A   Clear
9:55 PM 71.6 °F 69.8 °F 94% 29.93 in 10.0 mi South 3.5 mph - N/A   Scattered Clouds
10:15 PM 71.6 °F 69.8 °F 94% 29.94 in 10.0 mi Calm Calm - N/A   Overcast
10:35 PM 71.6 °F 69.8 °F 94% 29.93 in 10.0 mi Calm Calm - N/A   Overcast
10:55 PM 71.6 °F 69.8 °F 94% 29.94 in 10.0 mi Calm Calm - N/A   Overcast
11:15 PM 73.4 °F 68.0 °F 83% 29.95 in 10.0 mi Calm Calm - N/A   Light Drizzle
11:35 PM 71.6 °F 66.2 °F 83% 29.95 in 10.0 mi SW 9.2 mph - N/A   Overcast
11:55 PM 69.8 °F 66.2 °F 88% 29.95 in 10.0 mi SW 6.9 mph - N/A   Scattered Clouds